Location: Borgo
(42.3939°N, 9.2791°E)
Time: 20:07:27
(UTC+00:00)

Cosmos 1939 Rocket - Pass Details

Date: 24 January 2021
Orbit: 531 x 585 km, 97.4° (Epoch: 03 March)

Event Time Altitude Azimuth Distance (km) Brightness Sun altitude
Rises 17:30:31 0° 173° (S) 2,789 6.5 -11.9°
Reaches altitude 10° 17:32:40 10° 175° (S) 1,890 5.7 -12.3°
Maximum altitude 17:36:46 68° 259° (W) 624 3.3 -13.0°
Drops below altitude 10° 17:40:49 10° 343° (NNW) 1,881 5.6 -13.7°
Sets 17:42:59 0° 346° (NNW) 2,774 6.4 -14.1°
